Crosby, ND

8:06 AM CDT on April 24, 2017 (GMT -0500)
Crosby

Weather History for KD50 - February, 2014

Change the Weather History Date:

Saturday, February 22, 2014

  Actual Average (KISN) Record (KISN)
Temperature  
Mean Temperature 2 °F -  
Max Temperature 8 °F 31 °F 61 °F (1958)
Min Temperature -4 °F 10 °F -28 °F (1910)
Degree Days  
Heating Degree Days 63    
Moisture  
Dew Point -3 °F    
Average Humidity 79    
Maximum Humidity 92    
Minimum Humidity 67    
Precipitation  
Precipitation 0.00 in - - ()
Sea Level Pressure  
Sea Level Pressure 30.09 in    
Wind  
Wind Speed 13 mph (NW)    
Max Wind Speed 20 mph    
Max Gust Speed 23 mph    
Visibility 10 miles    
Events      
Averages and records for this station are not official NWS values.
T = Trace of Precipitation, MM = Missing Value Source: NWS Daily Summary

Daily Weather History Graph

Daily Weather History Graph

Search for Another Location

Airport or City:

Trip Planner

Search our weather history database for the weather conditions in past years. The results will help you decide how hot, cold, wet, or windy it might be!

Date:

Astronomy

Feb. 22, 2014 Rise Set
Actual Time 7:48 AM CST 6:25 PM CST
Civil Twilight 7:16 AM CST 6:57 PM CST
Nautical Twilight 6:39 AM CST 7:34 PM CST
Astronomical Twilight 6:03 AM CST 8:10 PM CST
Moon 1:58 AM CST (2/22) 11:24 AM CST (2/22)
Length of Visible Light 11h 41m
Length of Day
10h 36m
Waning Gibbous, 50% of the Moon is Illuminated
Feb 22
Waning Gibbous
Mar 1
New
Mar 8
First Quarter
Mar 16
Full
Mar 23
Last Quarter

Hourly Weather History & Observations

Time (CST) Temp. Windchill Dew Point Humidity Pressure Visibility Wind Dir Wind Speed Gust Speed Precip Events Conditions
12:15 AM -0.4 °F -18.4 °F -5.8 °F 78% 29.95 in 10.0 mi NW 12.7 mph - N/A   Unknown
12:35 AM -2.2 °F -21.5 °F -5.8 °F 85% 29.95 in 10.0 mi NW 13.8 mph - N/A   Unknown
12:55 AM -2.2 °F -20.7 °F -5.8 °F 85% 29.95 in 10.0 mi NW 12.7 mph - N/A   Unknown
1:15 AM -2.2 °F -20.7 °F -5.8 °F 85% 29.96 in 10.0 mi WNW 12.7 mph - N/A   Unknown
1:35 AM -2.2 °F -22.2 °F -5.8 °F 85% 29.96 in 10.0 mi NW 15.0 mph 20.7 mph N/A   Unknown
1:55 AM -2.2 °F -20.7 °F -5.8 °F 85% 29.97 in 10.0 mi NW 12.7 mph - N/A   Unknown
2:15 AM -2.2 °F -19.9 °F -7.6 °F 78% 29.97 in 10.0 mi WNW 11.5 mph - N/A   Unknown
2:35 AM -2.2 °F -19.9 °F -7.6 °F 78% 29.98 in 10.0 mi WNW 11.5 mph - N/A   Unknown
2:55 AM -2.2 °F -18.9 °F -7.6 °F 78% 29.98 in 10.0 mi WNW 10.4 mph - N/A   Unknown
3:15 AM -2.2 °F -19.9 °F -7.6 °F 78% 29.98 in 10.0 mi WNW 11.5 mph - N/A   Unknown
3:35 AM -2.2 °F -20.7 °F -5.8 °F 85% 29.98 in 10.0 mi WNW 12.7 mph - N/A   Unknown
3:55 AM -2.2 °F -20.7 °F -5.8 °F 85% 29.99 in 10.0 mi WNW 12.7 mph - N/A   Unknown
4:15 AM -2.2 °F -20.7 °F -5.8 °F 85% 29.99 in 10.0 mi WNW 12.7 mph - N/A   Unknown
4:35 AM -2.2 °F -21.5 °F -5.8 °F 85% 30.00 in 10.0 mi NW 13.8 mph - N/A   Unknown
4:55 AM -2.2 °F -21.5 °F -5.8 °F 85% 30.00 in 10.0 mi WNW 13.8 mph - N/A   Unknown
5:15 AM -2.2 °F -19.9 °F -7.6 °F 78% 30.01 in 10.0 mi WNW 11.5 mph - N/A   Unknown
5:35 AM -2.2 °F -18.0 °F -7.6 °F 78% 30.01 in 10.0 mi WNW 9.2 mph - N/A   Unknown
5:55 AM -4.0 °F -20.2 °F -9.4 °F 78% 30.02 in 10.0 mi WNW 9.2 mph - N/A   Unknown
6:15 AM -4.0 °F -19.0 °F -9.4 °F 78% 30.02 in 10.0 mi WNW 8.1 mph - N/A   Unknown
6:35 AM -2.2 °F -19.9 °F -7.6 °F 78% 30.02 in 10.0 mi NW 11.5 mph - N/A   Unknown
6:55 AM -2.2 °F -19.9 °F -7.6 °F 78% 30.02 in 10.0 mi NW 11.5 mph 17.3 mph N/A   Unknown
7:15 AM -2.2 °F -18.9 °F -7.6 °F 78% 30.03 in 10.0 mi NW 10.4 mph - N/A   Unknown
7:35 AM -2.2 °F -19.9 °F -7.6 °F 78% 30.03 in 10.0 mi WNW 11.5 mph - N/A   Unknown
7:55 AM -4.0 °F -20.2 °F -7.6 °F 85% 30.04 in 10.0 mi NW 9.2 mph - N/A   Unknown
8:15 AM -2.2 °F -18.0 °F -7.6 °F 78% 30.05 in 10.0 mi NW 9.2 mph - N/A   Unknown
8:35 AM -0.4 °F -16.7 °F -5.8 °F 78% 30.05 in 10.0 mi NW 10.4 mph - N/A   Unknown
8:55 AM -0.4 °F -18.4 °F -4.0 °F 85% 30.06 in 10.0 mi WNW 12.7 mph - N/A   Unknown
9:15 AM -0.4 °F -18.4 °F -4.0 °F 85% 30.06 in 10.0 mi NW 12.7 mph - N/A   Unknown
9:35 AM -0.4 °F -17.6 °F -2.2 °F 92% 30.06 in 10.0 mi NW 11.5 mph - N/A   Unknown
9:55 AM -0.4 °F -18.4 °F -4.0 °F 85% 30.07 in 10.0 mi NW 12.7 mph - N/A   Unknown
10:15 AM 1.4 °F -14.5 °F -2.2 °F 85% 30.08 in 10.0 mi NW 10.4 mph - N/A   Unknown
10:35 AM 1.4 °F -15.3 °F -2.2 °F 85% 30.08 in 10.0 mi WNW 11.5 mph - N/A   Unknown
10:55 AM 3.2 °F -13.9 °F -2.2 °F 78% 30.09 in 10.0 mi NW 12.7 mph 18.4 mph N/A   Unknown
11:15 AM 5.0 °F -13.0 °F -2.2 °F 72% 30.09 in 10.0 mi NW 15.0 mph - N/A   Unknown
11:35 AM 5.0 °F -13.6 °F -0.4 °F 78% 30.10 in 10.0 mi NW 16.1 mph 19.6 mph N/A   Unknown
11:55 AM 5.0 °F -14.2 °F -0.4 °F 78% 30.10 in 10.0 mi NW 17.3 mph - N/A   Unknown
12:15 PM 5.0 °F -13.6 °F -0.4 °F 78% 30.11 in 10.0 mi NW 16.1 mph - N/A   Unknown
12:35 PM 6.8 °F -10.7 °F -0.4 °F 72% 30.11 in 10.0 mi NW 15.0 mph - N/A   Unknown
12:55 PM 6.8 °F -12.9 °F -0.4 °F 72% 30.10 in 10.0 mi NW 19.6 mph - N/A   Unknown
1:15 PM 6.8 °F -11.8 °F -0.4 °F 72% 30.10 in 10.0 mi NW 17.3 mph 20.7 mph N/A   Unknown
1:35 PM 6.8 °F -11.3 °F -0.4 °F 72% 30.11 in 10.0 mi NW 16.1 mph - N/A   Unknown
1:55 PM 6.8 °F -12.9 °F -0.4 °F 72% 30.11 in 10.0 mi NW 19.6 mph 23.0 mph N/A   Unknown
2:15 PM 6.8 °F -11.8 °F -0.4 °F 72% 30.11 in 10.0 mi NW 17.3 mph - N/A   Unknown
2:35 PM 8.6 °F -8.9 °F -0.4 °F 67% 30.11 in 10.0 mi NW 16.1 mph - N/A   Unknown
2:55 PM 8.6 °F -8.9 °F -0.4 °F 67% 30.11 in 10.0 mi NW 16.1 mph - N/A   Unknown
3:15 PM 8.6 °F -8.3 °F -0.4 °F 67% 30.11 in 10.0 mi WNW 15.0 mph 19.6 mph N/A   Unknown
3:35 PM 8.6 °F -9.5 °F -0.4 °F 67% 30.11 in 10.0 mi NNW 17.3 mph - N/A   Unknown
3:55 PM 8.6 °F -8.3 °F -0.4 °F 67% 30.12 in 10.0 mi NW 15.0 mph - N/A   Unknown
4:15 PM 8.6 °F -8.3 °F -0.4 °F 67% 30.12 in 10.0 mi NW 15.0 mph - N/A   Unknown
4:35 PM 8.6 °F -8.9 °F -0.4 °F 67% 30.13 in 10.0 mi NW 16.1 mph - N/A   Unknown
4:55 PM 6.8 °F -9.3 °F -0.4 °F 72% 30.13 in 10.0 mi NW 12.7 mph - N/A   Unknown
5:15 PM 6.8 °F -10.7 °F -0.4 °F 72% 30.14 in 10.0 mi NW 15.0 mph - N/A   Unknown
5:35 PM 8.6 °F -8.3 °F -0.4 °F 67% 30.14 in 10.0 mi NW 15.0 mph - N/A   Unknown
5:55 PM 6.8 °F -8.6 °F -0.4 °F 72% 30.15 in 10.0 mi NW 11.5 mph - N/A   Unknown
6:15 PM 5.0 °F -10.0 °F -0.4 °F 78% 30.15 in 10.0 mi WNW 10.4 mph - N/A   Unknown
6:35 PM 5.0 °F -8.1 °F -0.4 °F 78% 30.16 in 10.0 mi WNW 8.1 mph - N/A   Unknown
6:55 PM 5.0 °F -10.0 °F -0.4 °F 78% 30.17 in 10.0 mi NW 10.4 mph - N/A   Unknown
7:15 PM 5.0 °F -10.0 °F -0.4 °F 78% 30.17 in 10.0 mi NW 10.4 mph - N/A   Unknown
7:35 PM 5.0 °F -10.8 °F -0.4 °F 78% 30.18 in 10.0 mi NW 11.5 mph - N/A   Unknown
7:55 PM 5.0 °F -10.8 °F -0.4 °F 78% 30.18 in 10.0 mi WNW 11.5 mph - N/A   Unknown
8:15 PM 5.0 °F -11.6 °F -0.4 °F 78% 30.18 in 10.0 mi WNW 12.7 mph - N/A   Unknown
8:35 PM 5.0 °F -12.3 °F 1.4 °F 85% 30.19 in 10.0 mi NW 13.8 mph - N/A   Unknown
8:55 PM 5.0 °F -14.7 °F 1.4 °F 85% 30.19 in 10.0 mi NW 18.4 mph - N/A   Unknown
9:15 PM 5.0 °F -11.6 °F 1.4 °F 85% 30.19 in 10.0 mi NW 12.7 mph - N/A   Unknown
9:35 PM 5.0 °F -11.6 °F 1.4 °F 85% 30.20 in 10.0 mi WNW 12.7 mph - N/A   Unknown
9:55 PM 5.0 °F -13.0 °F -0.4 °F 78% 30.20 in 10.0 mi NW 15.0 mph - N/A   Unknown
10:15 PM 3.2 °F -14.6 °F -0.4 °F 85% 30.21 in 10.0 mi NW 13.8 mph - N/A   Unknown
10:35 PM 1.4 °F -16.9 °F -0.4 °F 92% 30.21 in 10.0 mi NW 13.8 mph - N/A   Unknown
10:55 PM 1.4 °F -18.2 °F -0.4 °F 92% 30.22 in 10.0 mi NW 16.1 mph 21.9 mph N/A   Unknown
11:15 PM 1.4 °F -18.2 °F -2.2 °F 85% 30.22 in 10.0 mi NW 16.1 mph - N/A   Unknown
11:35 PM -0.4 °F -19.9 °F -2.2 °F 92% 30.22 in 10.0 mi NW 15.0 mph - N/A   Unknown
11:55 PM -0.4 °F -18.4 °F -2.2 °F 92% 30.22 in 10.0 mi NW 12.7 mph - N/A   Unknown